#timestamp,LO_Frequency,Hit 
1500577215.3,286046958.5,N
1500577235.2,286046961.0,N
1500577255.9,286046960.2,N
1500577275.7,286046962.2,N
1500577295.6,286046959.8,N
1500577315.4,286046962.7,N
1500577335.2,286046962.3,N
1500577355.1,286046962.1,N
1500577356.0,286046962.1,N
1500577375.8,286046961.5,N
1500577395.6,286046960.8,N
1500577415.5,286046960.2,N
1500577435.3,286046960.5,N
1500577455.1,286046960.7,N
1500577475.8,286046961.8,N
1500577495.7,286046960.3,N
1500577515.5,286046960.7,N
1500577535.3,286046958.3,N
1500577555.2,286046960.7,N
1500577575.0,286046960.7,N
1500577575.9,286046960.7,N
1500577595.7,286046960.5,N
1500577615.6,286046960.2,N
1500577635.4,286046959.1,N
1500577655.2,286046954.2,N
1500577675.1,286046953.5,N
1500577676.0,286046953.5,N
1500577695.8,286046956.1,N
1500577715.6,286046957.9,N
1500577735.5,286046957.9,N
1500577755.3,286046957.7,N
1500577775.1,286046955.8,N
1500577795.9,286046953.5,N
1500577815.7,286046954.0,N
1500577835.5,286046954.1,N
1500577855.4,286046953.7,N
1500577875.2,286046955.1,N
1500577895.0,286046955.8,N
1500577895.9,286046955.8,N
1500577915.8,286046954.3,N
1500577935.6,286046952.2,N
1500577955.4,286046954.4,N
1500577975.3,286046954.1,N
1500577995.1,286046954.0,N
1500577996.0,286046954.0,N
1500578015.8,286046955.9,N
1500578035.7,286046956.0,N
1500578055.5,286046957.0,N
1500578075.3,286046959.6,N
1500578095.1,286046960.7,N
1500578115.9,286046958.2,N
1500578135.7,286046958.2,N
1500578155.5,286046959.0,N
1500578175.4,286046956.1,N
1500578195.2,286046957.8,N
1500578215.0,286046958.0,N
1500578215.9,286046958.0,N
1500578235.8,286046955.8,N
1500578255.6,286046953.9,N
1500578275.4,286046956.3,N
1500578295.3,286046953.8,N
1500578315.1,286046953.7,N
1500578335.8,286046953.3,N
1500578355.7,286046955.8,N
1500578375.5,286046958.0,N
1500578395.3,286046955.2,N
1500578415.2,286046955.2,N
1500578435.9,286046956.9,N
1500578455.7,286046956.5,N
1500578475.6,286046957.3,N
1500578495.4,286046957.6,N
1500578515.2,286046957.1,N
1500578535.1,286046955.0,N
1500578536.0,286046955.0,N
1500578555.8,286046959.5,N
1500578575.6,286046958.8,N
1500578595.5,286046960.2,N
1500578615.3,286046960.6,N
1500578635.1,286046960.9,N
1500578655.9,286046958.9,N
1500578675.7,286046958.6,N
1500578695.5,286046960.0,N
1500578715.3,286046960.1,N
1500578735.2,286046960.8,N
1500578755.0,286046958.4,N
1500578755.9,286046958.4,N
1500578775.7,286046961.2,N
1500578795.6,286046962.8,N
1500578815.4,286046962.4,N
1500578835.2,286046960.2,N
1500578855.1,286046961.7,N
1500578856.0,286046961.7,N
1500578875.8,286046963.2,N
1500578895.6,286046961.5,N
1500578915.5,286046963.6,N
1500578935.3,286046965.7,N
1500578955.1,286046964.2,N
1500578975.9,286046961.3,N
1500578995.7,286046964.2,N
1500579015.5,286046965.8,N
1500579035.4,286046966.8,N
1500579055.2,286046966.8,N
1500579075.0,286046966.1,N
1500579075.9,286046966.1,N
1500579095.8,286046968.1,N
1500579115.6,286046967.9,N
1500579135.4,286046967.9,N
1500579155.3,286046969.3,N
1500579175.1,286046969.9,N
1500579176.0,286046969.9,N
1500579195.8,286046971.4,N
1500579215.7,286046973.7,N
1500579235.5,286046972.1,N
1500579255.3,286046973.3,N
1500579275.2,286046972.1,N
1500579295.9,286046968.8,N
1500579315.7,286046968.3,N
1500579335.6,286046970.0,N
1500579355.4,286046971.7,N
1500579375.2,286046971.6,N
1500579395.0,286046971.8,N
1500579396.0,286046971.8,N
1500579415.8,286046968.9,N
1500579435.6,286046968.3,N
1500579455.4,286046969.3,N
1500579475.3,286046971.8,N
1500579495.1,286046971.9,N
1500579515.8,286046969.7,N
1500579535.7,286046971.4,N
1500579555.5,286046973.2,N
1500579575.3,286046977.2,N
1500579595.2,286046978.5,N
1500579615.9,286046977.5,N
1500579635.7,286046975.7,N
1500579655.6,286046978.6,N
1500579675.4,286046977.8,N
1500579695.2,286046976.5,N
1500579715.1,286046978.6,N
1500579716.0,286046978.6,N
1500579735.8,286046979.9,N
1500579755.6,286046979.1,N
1500579775.5,286046979.9,N
1500579795.3,286046981.5,N
1500579815.1,286046983.1,N
1500579835.9,286046984.5,N
1500579855.7,286046984.8,N
1500579875.5,286046983.0,N
1500579895.4,286046981.8,N
1500579915.2,286046979.8,N
1500579935.0,286046980.4,N
1500579935.9,286046980.4,N
1500579955.8,286046976.7,N
1500579975.6,286046977.1,N
1500579995.4,286046978.8,N
1500580015.3,286046977.6,N
1500580035.1,286046978.2,N
1500580036.0,286046978.2,N
1500580055.8,286046979.0,N
1500580075.7,286046979.9,N
1500580095.5,286046978.2,N
1500580115.3,286046977.8,N
1500580135.1,286046978.3,N
1500580155.9,286046978.3,N
1500580175.7,286046979.8,N
1500580195.5,286046979.3,N
1500580215.4,286046978.0,N
1500580235.2,286046980.2,N
1500580255.0,286046980.3,N
1500580255.9,286046980.3,N
1500580275.8,286046977.6,N
1500580295.6,286046977.5,N
1500580315.4,286046979.6,N
1500580335.3,286046978.5,N
1500580355.1,286046974.6,N
1500580356.0,286046974.6,N
1500580375.8,286046976.4,N
1500580395.7,286046977.5,N
1500580415.5,286046980.4,N
1500580435.3,286046980.4,N
1500580455.2,286046981.9,N
1500580475.9,286046979.2,N
1500580495.7,286046979.8,N
1500580515.6,286046977.8,N
1500580535.4,286046977.7,N
1500580555.2,286046979.1,N
1500580575.1,286046979.4,N
1500580576.0,286046979.4,N
1500580595.8,286046978.9,N
1500580615.6,286046979.3,N
1500580635.4,286046979.7,N
1500580655.3,286046981.9,N
1500580675.1,286046979.0,N
1500580695.8,286046977.4,N
1500580715.7,286046977.8,N
1500580735.5,286046977.3,N
1500580755.3,286046977.5,N
1500580775.2,286046977.6,N
1500580795.9,286046978.2,N
